Location: Piotrkow Trybunalski
(51.4000°N, 19.6830°E)
Time: 04:27:39
(UTC+02:00)

A-11 Canister half - Pass Details

Date: 04 February 2023
Orbit: 1526 x 1682 km, 47.3° (Epoch: 24 March)

Event Time Altitude Azimuth Distance (km) Brightness Sun altitude
Rises 09:39:08 0° 278° (W) 4,689 11.2 16.1°
Reaches altitude 10° 09:42:11 10° 275° (W) 3,715 10.7 16.4°
Maximum altitude 09:51:20 60° 198° (SSW) 1,754 9.9 17.2°
Drops below altitude 10° 10:00:45 10° 122° (ESE) 3,814 12.3 17.9°
Sets 10:03:56 0° 119° (ESE) 4,820 12.6 18.1°
